Simultaneous Nadir Overpasses (SNOs) Predictions

Prediction of SNOs between METOP-A and NPP Satellite Orbit:

Table of predicted SNOs for the next 14.0 days since TLE Epoch: 1/30/2021
Index Date (METOP-A) Time (METOP-A) Lat,Lon (METOP-A) SZA (METOP-A ) Date (NPP) Time (NPP) Lat,Lon (NPP) SZA (NPP ) Distance(km) Time Diff (sec)
1 02/05/2021 23:49:22 76.65, 166.45 92.94 02/05/2021 23:48:13 76.66, 164.04 93.16 61.82 69
2 02/06/2021 00:40:06 -76.55, -26.59 87.14 02/06/2021 00:38:55 -76.54, -28.22 86.99 42.23 71
3 02/06/2021 01:30:50 76.36, 140.06 92.72 02/06/2021 01:29:36 76.35, 139.82 92.76 6.41 74
4 02/06/2021 02:21:33 -76.30, -52.80 87.33 02/06/2021 02:20:20 -76.32, -52.79 87.29 2.22 73
5 02/06/2021 03:12:13 76.29, 114.49 92.66 02/06/2021 03:11:05 76.30, 114.59 92.69 2.99 68
6 02/06/2021 04:02:54 -76.33, -78.05 87.33 02/06/2021 04:01:50 -76.33, -78.18 87.30 3.35 64
7 02/06/2021 04:53:34 76.32, 89.24 92.66 02/06/2021 04:52:35 76.31, 89.20 92.67 1.55 59
8 02/06/2021 05:44:16 -76.31,-103.46 87.37 02/06/2021 05:43:19 -76.29,-103.41 87.37 3.01 57
9 02/06/2021 06:34:56 76.30, 63.84 92.62 02/06/2021 06:34:05 76.31, 63.81 92.65 1.70 51
10 02/06/2021 07:25:38 -76.29,-128.86 87.40 02/06/2021 07:24:49 -76.29,-128.80 87.39 1.80 49
11 02/06/2021 08:16:18 76.28, 38.43 92.59 02/06/2021 08:15:34 76.27, 38.58 92.58 4.14 44
12 02/06/2021 09:06:59 -76.32,-154.11 87.40 02/06/2021 09:06:19 -76.30,-154.19 87.41 3.17 40
13 02/06/2021 09:57:39 76.31, 13.18 92.58 02/06/2021 09:57:04 76.28, 13.19 92.57 3.31 35
14 02/06/2021 10:48:21 -76.30,-179.52 87.44 02/06/2021 10:47:49 -76.30,-179.58 87.42 1.50 32
15 02/06/2021 11:39:01 76.29, -12.23 92.55 02/06/2021 11:38:34 76.28, -12.20 92.55 0.98 27
16 02/06/2021 12:29:43 -76.28, 155.07 87.47 02/06/2021 12:29:19 -76.31, 155.03 87.44 2.97 24
17 02/06/2021 13:20:23 76.27, -37.64 92.51 02/06/2021 13:20:04 76.29, -37.59 92.53 2.35 19
18 02/06/2021 14:11:05 -76.26, 129.66 87.51 02/06/2021 14:10:48 -76.26, 129.80 87.51 3.65 17
19 02/06/2021 15:01:44 76.30, -62.89 92.51 02/06/2021 15:01:34 76.29, -62.98 92.52 2.60 10
20 02/06/2021 15:52:26 -76.29, 104.41 87.51 02/06/2021 15:52:18 -76.27, 104.41 87.53 2.09 8
21 02/06/2021 16:43:06 76.28, -88.29 92.48 02/06/2021 16:43:04 76.30, -88.37 92.50 3.07 2
22 02/06/2021 17:33:48 -76.27, 79.01 87.55 02/06/2021 17:33:48 -76.27, 79.02 87.54 0.65 0
23 02/06/2021 18:24:28 76.26,-113.70 92.44 02/06/2021 18:24:33 76.26,-113.60 92.43 2.59 5
24 02/06/2021 19:15:10 -76.25, 53.60 87.58 02/06/2021 19:15:18 -76.28, 53.63 87.56 3.29 8
25 02/06/2021 20:05:49 76.28,-138.95 92.44 02/06/2021 20:06:03 76.26,-138.99 92.41 2.89 14
26 02/06/2021 20:56:31 -76.28, 28.35 87.58 02/06/2021 20:56:48 -76.28, 28.24 87.57 3.06 17
27 02/06/2021 21:47:11 76.26,-164.36 92.40 02/06/2021 21:47:33 76.26,-164.38 92.40 0.73 22
28 02/06/2021 22:37:53 -76.26, 2.94 87.62 02/06/2021 22:38:17 -76.24, 3.01 87.65 2.38 24
29 02/06/2021 23:28:33 76.25, 170.24 92.37 02/06/2021 23:29:03 76.27, 170.22 92.38 2.71 30
30 02/07/2021 00:19:15 -76.24, -22.46 87.65 02/07/2021 00:19:47 -76.25, -22.38 87.66 2.35 32
31 02/07/2021 01:09:54 76.27, 144.99 92.36 02/07/2021 01:10:33 76.27, 144.83 92.37 4.04 39
32 02/07/2021 02:00:36 -76.27, -47.71 87.66 02/07/2021 02:01:17 -76.25, -47.77 87.68 2.18 41
33 02/07/2021 02:51:16 76.25, 119.58 92.33 02/07/2021 02:52:02 76.23, 119.60 92.29 2.28 46
34 02/07/2021 03:41:58 -76.25, -73.12 87.69 02/07/2021 03:42:47 -76.26, -73.16 87.69 1.65 49
35 02/07/2021 04:32:38 76.23, 94.17 92.30 02/07/2021 04:33:32 76.24, 94.21 92.28 1.20 54
36 02/07/2021 05:23:20 -76.23, -98.53 87.73 02/07/2021 05:24:16 -76.22, -98.39 87.77 3.71 56
37 02/07/2021 06:13:59 76.26, 68.92 92.29 02/07/2021 06:15:02 76.24, 68.82 92.26 3.31 63
38 02/07/2021 07:04:41 -76.25,-123.78 87.73 02/07/2021 07:05:46 -76.22,-123.78 87.78 3.71 65
39 02/07/2021 07:55:21 76.24, 43.51 92.26 02/07/2021 07:56:32 76.25, 43.43 92.25 2.32 71
40 02/07/2021 08:46:03 -76.23,-149.18 87.76 02/07/2021 08:47:16 -76.22,-149.18 87.80 1.07 73
41 02/07/2021 09:36:47 76.04, 17.49 92.10 02/07/2021 09:37:58 76.07, 18.68 92.01 32.13 71
42 02/07/2021 10:27:31 -75.94,-175.51 87.98 02/07/2021 10:28:41 -76.00,-173.78 88.09 47.28 70
43 02/07/2021 11:18:16 75.69, -8.96 91.85 02/07/2021 11:19:21 75.75, -5.63 91.60 91.63 65



Historial Predications of SNOs between METOP-A and NPP
